[Iaude] MPEC C47: 2024 CO [a=0.87,e=0.30,i=12.8,H=23.6]
    mpec at marsden.cfa.harvard.edu 
    mpec at marsden.cfa.harvard.edu
       
    Mon Feb  5 08:58:56 EST 2024
    
    
  
M.P.E.C. 2024-C47                              Issued 2024 February 5, 13:57 UT
     The Minor Planet Electronic Circulars contain information on unusual
         minor planets, routine data on comets and natural satellites,
         and occasional editorial announcements.  They are published
    on behalf of Division F of the International Astronomical Union by the
          Minor Planet Center, Smithsonian Astrophysical Observatory,
                          Cambridge, MA 02138, U.S.A.
			  
             Prepared using the Tamkin Foundation Computer Network
                              MPC at CFA.HARVARD.EDU
            URL https://www.minorplanetcenter.net/    ISSN 1523-6714
                                    2024 CO                                     
Observations:
     K24C00O* C2024 02 03.35637507 50 55.955+48 09 58.80         20.96wXEC047F52
     K24C00O  C2024 02 03.36864107 50 48.231+48 09 25.45         21.15wXEC047F52
     K24C00O  C2024 02 03.38092607 50 40.430+48 08 51.22         21.17wXEC047F52
     K24C00O  C2024 02 03.39318307 50 32.754+48 08 17.39         21.21wXEC047F52
     K24C00O  C2024 02 03.55544107 48 51.413+48 00 21.57         21.35GVEC047F52
     K24C00O  C2024 02 03.55608607 48 50.959+48 00 19.47         21.54GVEC047F52
     K24C00O KC2024 02 05.11904307 33 50.48 +46 41 03.9          20.6 GXEC047858
     K24C00O KC2024 02 05.12972507 33 44.19 +46 40 30.6          21.3 GXEC047858
     K24C00O KC2024 02 05.14047107 33 37.84 +46 39 57.2          21.2 GXEC047858
     K24C00O KC2024 02 05.21321407 32 55.313+46 36 06.80         20.50GVEC047I52
     K24C00O KC2024 02 05.21727807 32 52.998+46 35 54.56         20.89GVEC047I52
     K24C00O KC2024 02 05.22135107 32 50.543+46 35 41.93         21.33GVEC047I52
     K24C00O KC2024 02 05.22541907 32 48.091+46 35 28.68         20.63GVEC047I52
Observer details:
858 Tebbutt Observatory, Edgewood.  Observer F. B. Zoltowski.  0.51-m f/8.1
    Schmidt-Cassegrain + CCD.
F52 Pan-STARRS 2, Haleakala.  Observers J. Herman, T. Lowe, P. Minguez, A.
    Schultz, I. Smith.  Measurers K. Chambers, T. de Boer, J. Fairlamb, H.
    Gao, M. Huber, C.-C. Lin, E. Magnier, Y. Ramanjooloo, R. Wainscoat, R.
    Weryk.  1.8-m Ritchey-Chretien + CCD.
I52 Steward Observatory, Mt. Lemmon Station.  Observer H. Groeller.  Measurers
    E. C. Beshore, D. Fay, J. B. Fazekas, D. C. Fuls, A. R. Gibbs, A. D.
    Grauer, H. Groeller, J. K. Hogan, R. A. Kowalski, S. M. Larson, G. J.
    Leonard, D. Rankin, R. L. Seaman, F. C. Shelly, K. W. Wierzchos.  1.0-m
    prime focus + CCD.
Orbital elements:
2024 CO                                                  Earth MOID = 0.0486 AU
Epoch 2023 Sept. 13.0 TT = JDT 2460200.5                MPC                     
M  33.92009              (2000.0)            P               Q                  
n   1.21091124     Peri.  327.75920     +0.42704019     +0.89621559             
a   0.8717551      Node   327.06715     -0.77564026     +0.29476824             
e   0.3041644      Incl.   12.76722     -0.46477829     +0.33152572             
P   0.81           H   23.68          G   0.15           U   9                  
Residuals in seconds of arc
240203 F52  0.2-  0.2+    240203 F52  0.4-  0.2-    240205 I52  0.5+  0.3-
240203 F52  0.0   0.4+    240205 858  0.1+  0.3+    240205 I52  0.0   0.2+
240203 F52  0.4-  0.1+    240205 858  0.1-  0.1+    240205 I52  0.5-  0.1+
240203 F52  0.3+  0.4+    240205 858  0.5-  0.2+
240203 F52  0.2+  0.0     240205 I52 (0.4-  1.1-)
Ephemeris:
2024 CO                  a,e,i = 0.87, 0.30, 13                  q = 0.6066
Date    TT    R. A. (2000) Decl.     Delta      r    Elong.  Phase     V
2024 01 06    11 19 53.0 +46 04 58   0.2412  1.1358   124.0    45.9    22.6
...
2024 01 21    10 03 38.8 +51 17 41   0.1838  1.1338   141.6    32.6    21.6
...
2024 01 29    08 46 51.4 +51 06 08   0.1644  1.1264   147.1    28.4    21.3
...
2024 02 04    07 44 33.3 +47 38 51   0.1577  1.1179   144.6    30.8    21.2
2024 02 05    07 34 55.4 +46 47 27   0.1573  1.1162   143.5    31.7    21.3
2024 02 06    07 25 38.7 +45 52 01   0.1571  1.1145   142.3    32.7    21.3
...
2024 02 12    06 38 39.7 +39 19 13   0.1601  1.1027   133.1    40.8    21.5
...
2024 02 20    05 58 20.0 +29 52 43   0.1733  1.0831   118.9    53.0    22.0
...
2024 03 06    05 24 08.0 +15 32 15   0.2115  1.0346    95.7    72.6    22.9
A. U. Tomatic                (C) Copyright 2024 MPC           M.P.E.C. 2024-C47
    
    
More information about the Iaude
mailing list